JLY1207 SBGR-SBRF

Flight info

Callsign JLY1207
Flight time 2h 39m
Altitude 37000
Route VUMEV UZ14 AKPAS DCT ANBEX
Aircraft B738/M-SDFGIKRWY/LB1

Departure

Time 2026-05-07 17:32
Airport São Paulo/Guarulhos–Governor André Franco Montoro International Airport (SBGR)

Arrival

Time 2026-05-07 20:12
Airport Recife/Guararapes - Gilberto Freyre International Airport (SBRF)
Time Latitude Longitude Altitude Speed Heading
2026-05-07 16:59 -23.42758 -46.47416 2443 ft 0 kts 73°
2026-05-07 17:20 -23.42760 -46.47425 2443 ft 2 kts 73°
2026-05-07 17:21 -23.42764 -46.47441 2443 ft 2 kts 73°
2026-05-07 17:21 -23.42769 -46.47457 2443 ft 2 kts 73°
2026-05-07 17:21 -23.42773 -46.47472 2443 ft 2 kts 78°
2026-05-07 17:21 -23.42772 -46.47489 2443 ft 2 kts 109°
2026-05-07 17:22 -23.42764 -46.47503 2443 ft 2 kts 135°
2026-05-07 17:22 -23.42752 -46.47512 2443 ft 1 kts 159°
2026-05-07 17:22 -23.42746 -46.47514 2443 ft 1 kts 167°
2026-05-07 17:22 -23.42744 -46.47515 2443 ft 0 kts 165°
2026-05-07 17:24 -23.42744 -46.47514 2443 ft 0 kts 165°
2026-05-07 17:24 -23.42749 -46.47513 2443 ft 2 kts 165°
2026-05-07 17:25 -23.42778 -46.47508 2443 ft 6 kts 180°
2026-05-07 17:25 -23.42836 -46.47500 2444 ft 10 kts 167°
2026-05-07 17:25 -23.42898 -46.47480 2445 ft 9 kts 149°
2026-05-07 17:25 -23.42918 -46.47407 2446 ft 13 kts 77°
2026-05-07 17:26 -23.42887 -46.47294 2445 ft 18 kts 73°
2026-05-07 17:26 -23.42848 -46.47151 2445 ft 20 kts 74°
2026-05-07 17:26 -23.42805 -46.46992 2444 ft 22 kts 73°
2026-05-07 17:26 -23.42761 -46.46831 2445 ft 21 kts 73°
2026-05-07 17:27 -23.42722 -46.46682 2446 ft 20 kts 73°
2026-05-07 17:27 -23.42682 -46.46534 2446 ft 20 kts 73°
2026-05-07 17:27 -23.42644 -46.46393 2447 ft 18 kts 74°
2026-05-07 17:27 -23.42610 -46.46265 2450 ft 16 kts 73°
2026-05-07 17:28 -23.42578 -46.46153 2452 ft 14 kts 73°
2026-05-07 17:28 -23.42547 -46.46038 2452 ft 16 kts 73°
2026-05-07 17:28 -23.42513 -46.45909 2452 ft 18 kts 72°
2026-05-07 17:28 -23.42472 -46.45772 2454 ft 19 kts 71°
2026-05-07 17:29 -23.42434 -46.45635 2456 ft 19 kts 77°
2026-05-07 17:29 -23.42400 -46.45481 2454 ft 21 kts 75°
2026-05-07 17:29 -23.42359 -46.45325 2453 ft 21 kts 73°
2026-05-07 17:29 -23.42315 -46.45172 2453 ft 21 kts 71°
2026-05-07 17:30 -23.42276 -46.45027 2453 ft 18 kts 80°
2026-05-07 17:30 -23.42327 -46.44925 2454 ft 14 kts 158°
2026-05-07 17:30 -23.42416 -46.44896 2455 ft 12 kts 163°
2026-05-07 17:30 -23.42493 -46.44893 2455 ft 10 kts 221°
2026-05-07 17:31 -23.42525 -46.44989 2453 ft 26 kts 254°
2026-05-07 17:31 -23.42640 -46.45420 2452 ft 90 kts 254°
2026-05-07 17:31 -23.42870 -46.46272 2449 ft 143 kts 253°
2026-05-07 17:31 -23.43192 -46.47476 2475 ft 183 kts 257°
2026-05-07 17:32 -23.43554 -46.48822 2970 ft 187 kts 257°
2026-05-07 17:32 -23.43918 -46.50165 3556 ft 190 kts 258°
2026-05-07 17:32 -23.44292 -46.51566 4033 ft 196 kts 257°
2026-05-07 17:32 -23.44673 -46.52988 4567 ft 194 kts 258°
2026-05-07 17:33 -23.45058 -46.54424 4921 ft 204 kts 258°
2026-05-07 17:33 -23.45571 -46.55910 5227 ft 220 kts 243°
2026-05-07 17:33 -23.46689 -46.57105 5544 ft 238 kts 208°
2026-05-07 17:33 -23.48335 -46.57516 5884 ft 250 kts 178°
2026-05-07 17:34 -23.50089 -46.57303 6330 ft 256 kts 171°
2026-05-07 17:34 -23.51847 -46.56864 6798 ft 262 kts 157°
2026-05-07 17:34 -23.53367 -46.55853 7348 ft 259 kts 129°
2026-05-07 17:34 -23.54293 -46.54184 7730 ft 262 kts 103°
2026-05-07 17:35 -23.54762 -46.52232 8111 ft 272 kts 98°
2026-05-07 17:35 -23.55190 -46.50183 8486 ft 285 kts 99°
2026-05-07 17:35 -23.55666 -46.48058 8944 ft 295 kts 100°
2026-05-07 17:35 -23.56184 -46.45880 9570 ft 298 kts 101°
2026-05-07 17:36 -23.56718 -46.43682 10248 ft 300 kts 101°
2026-05-07 17:36 -23.57254 -46.41473 10685 ft 312 kts 101°
2026-05-07 17:36 -23.57796 -46.39121 11054 ft 324 kts 98°
2026-05-07 17:36 -23.58016 -46.36640 11393 ft 334 kts 83°
2026-05-07 17:37 -23.57635 -46.34137 11726 ft 344 kts 74°
2026-05-07 17:37 -23.57010 -46.31555 12099 ft 355 kts 72°
2026-05-07 17:37 -23.56343 -46.28962 12772 ft 357 kts 73°
2026-05-07 17:37 -23.55700 -46.26358 13413 ft 359 kts 74°
2026-05-07 17:38 -23.55082 -46.23725 13987 ft 364 kts 75°
2026-05-07 17:38 -23.54478 -46.21057 14556 ft 368 kts 75°
2026-05-07 17:38 -23.53874 -46.18334 15189 ft 371 kts 75°
2026-05-07 17:38 -23.53268 -46.15582 15812 ft 374 kts 75°
2026-05-07 17:39 -23.52666 -46.12846 16421 ft 377 kts 75°
2026-05-07 17:39 -23.52043 -46.10026 17001 ft 381 kts 75°
2026-05-07 17:39 -23.51302 -46.07254 17559 ft 384 kts 69°
2026-05-07 17:39 -23.50057 -46.04641 18040 ft 388 kts 52°
2026-05-07 17:40 -23.48167 -46.02578 18560 ft 391 kts 36°
2026-05-07 17:40 -23.45802 -46.01021 19044 ft 395 kts 27°
2026-05-07 17:40 -23.43272 -45.99815 19480 ft 400 kts 18°
2026-05-07 17:40 -23.40529 -45.99099 19960 ft 404 kts
2026-05-07 17:41 -23.37741 -45.98844 20449 ft 407 kts
2026-05-07 17:41 -23.34850 -45.98815 20958 ft 411 kts 358°
2026-05-07 17:41 -23.31996 -45.98856 21458 ft 414 kts 357°
2026-05-07 17:41 -23.29104 -45.98891 21950 ft 418 kts 358°
2026-05-07 17:42 -23.26137 -45.98894 22064 ft 423 kts 358°
2026-05-07 17:42 -23.23145 -45.98859 22388 ft 430 kts 358°
2026-05-07 17:42 -23.20157 -45.98794 23101 ft 427 kts 359°
2026-05-07 17:42 -23.17156 -45.98712 23564 ft 431 kts 359°
2026-05-07 17:43 -23.14148 -45.98621 24010 ft 435 kts 359°
2026-05-07 17:43 -23.11086 -45.98521 24391 ft 440 kts 359°
2026-05-07 17:43 -23.07984 -45.98417 24736 ft 446 kts 359°
2026-05-07 17:43 -23.04889 -45.98310 25196 ft 448 kts 359°
2026-05-07 17:44 -23.01770 -45.98200 25636 ft 451 kts 359°
2026-05-07 17:44 -22.98584 -45.98088 26043 ft 455 kts 359°
2026-05-07 17:44 -22.95396 -45.97975 26382 ft 460 kts 360°
2026-05-07 17:44 -22.92176 -45.97710 26780 ft 465 kts
2026-05-07 17:45 -22.88938 -45.97007 27103 ft 472 kts 14°
2026-05-07 17:45 -22.85810 -45.95755 27517 ft 476 kts 24°
2026-05-07 17:45 -22.82865 -45.94040 27846 ft 481 kts 31°
2026-05-07 17:45 -22.80057 -45.92041 28182 ft 485 kts 34°
2026-05-07 17:46 -22.77315 -45.89898 28592 ft 487 kts 36°
2026-05-07 17:46 -22.74568 -45.87682 28998 ft 489 kts 37°
2026-05-07 17:46 -22.71870 -45.85503 29547 ft 487 kts 37°
2026-05-07 17:46 -22.69129 -45.83313 30084 ft 485 kts 36°
2026-05-07 17:47 -22.66390 -45.81156 30596 ft 484 kts 36°
2026-05-07 17:47 -22.63675 -45.79047 31103 ft 483 kts 35°
2026-05-07 17:47 -22.60921 -45.76931 31592 ft 481 kts 35°
2026-05-07 17:47 -22.58196 -45.74857 32016 ft 481 kts 34°
2026-05-07 17:48 -22.55452 -45.72781 32488 ft 479 kts 34°
2026-05-07 17:48 -22.52731 -45.70732 32886 ft 479 kts 34°
2026-05-07 17:48 -22.49979 -45.68666 33341 ft 477 kts 34°
2026-05-07 17:48 -22.47254 -45.66624 33690 ft 478 kts 34°
2026-05-07 17:49 -22.44490 -45.64555 34040 ft 479 kts 34°
2026-05-07 17:49 -22.41765 -45.62516 34357 ft 480 kts 34°
2026-05-07 17:49 -22.39013 -45.60457 34701 ft 480 kts 34°
2026-05-07 17:49 -22.36269 -45.58407 34978 ft 482 kts 34°
2026-05-07 17:50 -22.33468 -45.56316 35206 ft 484 kts 34°
2026-05-07 17:50 -22.30701 -45.54249 35478 ft 486 kts 34°
2026-05-07 17:50 -22.27931 -45.52181 35833 ft 485 kts 34°
2026-05-07 17:50 -22.25123 -45.50085 36089 ft 486 kts 34°
2026-05-07 17:51 -22.22313 -45.47988 36338 ft 488 kts 34°
2026-05-07 17:51 -22.19497 -45.45889 36588 ft 489 kts 34°
2026-05-07 17:51 -22.16695 -45.43800 36909 ft 488 kts 34°
2026-05-07 17:51 -22.13887 -45.41710 37164 ft 488 kts 34°
2026-05-07 17:52 -22.08234 -45.37505 37173 ft 492 kts 34°
2026-05-07 17:52 -22.02587 -45.33286 37174 ft 490 kts 35°
2026-05-07 17:53 -21.97114 -45.28808 37170 ft 490 kts 38°
2026-05-07 17:53 -21.91770 -45.24207 37161 ft 492 kts 38°
2026-05-07 17:54 -21.86388 -45.19576 37154 ft 491 kts 38°
2026-05-07 17:54 -21.81012 -45.14993 37158 ft 490 kts 38°
2026-05-07 17:55 -21.75658 -45.10467 37158 ft 490 kts 38°
2026-05-07 17:55 -21.70260 -45.05923 37166 ft 491 kts 38°
2026-05-07 17:56 -21.64888 -45.01414 37161 ft 490 kts 38°
2026-05-07 17:56 -21.59510 -44.96905 37154 ft 490 kts 38°
2026-05-07 17:57 -21.55014 -44.93136 37147 ft 490 kts 38°
2026-05-07 17:57 -21.48677 -44.87833 37134 ft 491 kts 39°
2026-05-07 17:58 -21.43293 -44.83331 37136 ft 492 kts 38°
2026-05-07 17:58 -21.37886 -44.78812 37136 ft 490 kts 38°
2026-05-07 17:59 -21.32478 -44.74297 37133 ft 492 kts 39°
2026-05-07 17:59 -21.27107 -44.69813 37129 ft 492 kts 38°
2026-05-07 18:00 -21.21656 -44.65265 37132 ft 491 kts 39°
2026-05-07 18:00 -21.16266 -44.60773 37135 ft 490 kts 39°
2026-05-07 18:01 -21.10891 -44.56302 37137 ft 490 kts 39°
2026-05-07 18:01 -21.05513 -44.51831 37136 ft 491 kts 39°
2026-05-07 18:02 -20.97366 -44.45061 37143 ft 492 kts 39°
2026-05-07 18:03 -20.91937 -44.40558 37152 ft 493 kts 39°
2026-05-07 18:03 -20.86451 -44.36018 37165 ft 492 kts 39°
2026-05-07 18:04 -20.80976 -44.31489 37168 ft 492 kts 39°
2026-05-07 18:04 -20.75522 -44.26979 37172 ft 494 kts 39°
2026-05-07 18:05 -20.70079 -44.22482 37170 ft 494 kts 39°
2026-05-07 18:05 -20.64667 -44.18019 37166 ft 493 kts 39°
2026-05-07 18:06 -20.59230 -44.13500 37161 ft 493 kts 40°
2026-05-07 18:06 -20.53872 -44.08980 37158 ft 492 kts 40°
2026-05-07 18:07 -20.48461 -44.04421 37159 ft 492 kts 40°
2026-05-07 18:07 -20.43024 -43.99939 37151 ft 494 kts 39°
2026-05-07 18:08 -20.37594 -43.95509 37143 ft 491 kts 39°
2026-05-07 18:08 -20.32136 -43.91066 37148 ft 493 kts 39°
2026-05-07 18:09 -20.26660 -43.86603 37145 ft 492 kts 40°
2026-05-07 18:09 -20.21251 -43.82198 37146 ft 491 kts 39°
2026-05-07 18:10 -20.15778 -43.77740 37151 ft 492 kts 40°
2026-05-07 18:10 -20.10346 -43.73315 37153 ft 491 kts 39°
2026-05-07 18:11 -20.04921 -43.68901 37153 ft 492 kts 39°
2026-05-07 18:11 -19.99476 -43.64478 37154 ft 492 kts 40°
2026-05-07 18:12 -19.94011 -43.60038 37144 ft 491 kts 39°
2026-05-07 18:12 -19.88531 -43.55592 37140 ft 491 kts 40°
2026-05-07 18:13 -19.83111 -43.51186 37137 ft 491 kts 40°
2026-05-07 18:13 -19.77657 -43.46748 37133 ft 492 kts 40°
2026-05-07 18:14 -19.72211 -43.42323 37130 ft 491 kts 40°
2026-05-07 18:14 -19.66808 -43.37938 37129 ft 490 kts 40°
2026-05-07 18:15 -19.61337 -43.33502 37126 ft 490 kts 40°
2026-05-07 18:15 -19.55922 -43.29116 37124 ft 491 kts 40°
2026-05-07 18:16 -19.50481 -43.24711 37120 ft 493 kts 40°
2026-05-07 18:16 -19.45042 -43.20313 37119 ft 490 kts 40°
2026-05-07 18:17 -19.39620 -43.15934 37113 ft 490 kts 40°
2026-05-07 18:17 -19.34195 -43.11554 37110 ft 490 kts 40°
2026-05-07 18:18 -19.28769 -43.07177 37102 ft 490 kts 40°
2026-05-07 18:18 -19.23343 -43.02803 37094 ft 489 kts 40°
2026-05-07 18:19 -19.17875 -42.98399 37095 ft 490 kts 40°
2026-05-07 18:19 -19.12454 -42.94036 37096 ft 490 kts 40°
2026-05-07 18:20 -19.07020 -42.89669 37098 ft 491 kts 40°
2026-05-07 18:20 -19.01576 -42.85298 37102 ft 489 kts 40°
2026-05-07 18:21 -18.96156 -42.80950 37103 ft 488 kts 40°
2026-05-07 18:21 -18.90734 -42.76602 37115 ft 488 kts 40°
2026-05-07 18:22 -18.85245 -42.72205 37120 ft 488 kts 40°
2026-05-07 18:22 -18.79838 -42.67876 37126 ft 487 kts 40°
2026-05-07 18:23 -18.74431 -42.63553 37135 ft 488 kts 40°
2026-05-07 18:23 -18.69016 -42.59227 37125 ft 487 kts 40°
2026-05-07 18:24 -18.63591 -42.54899 37122 ft 488 kts 40°
2026-05-07 18:24 -18.58184 -42.50586 37112 ft 486 kts 40°
2026-05-07 18:25 -18.52760 -42.46262 37102 ft 486 kts 40°
2026-05-07 18:25 -18.47364 -42.41964 37099 ft 486 kts 40°
2026-05-07 18:26 -18.41971 -42.37671 37101 ft 487 kts 40°
2026-05-07 18:26 -18.36494 -42.33312 37105 ft 487 kts 40°
2026-05-07 18:27 -18.31092 -42.29019 37105 ft 486 kts 40°
2026-05-07 18:27 -18.25654 -42.24703 37116 ft 486 kts 40°
2026-05-07 18:28 -18.20269 -42.20434 37102 ft 484 kts 40°
2026-05-07 18:28 -18.14866 -42.16152 37086 ft 484 kts 40°
2026-05-07 18:29 -18.09493 -42.11897 37078 ft 483 kts 40°
2026-05-07 18:29 -18.04124 -42.07650 37075 ft 484 kts 40°
2026-05-07 18:30 -17.98727 -42.03384 37073 ft 482 kts 40°
2026-05-07 18:30 -17.93346 -41.99132 37078 ft 483 kts 40°
2026-05-07 18:31 -17.87878 -41.94815 37088 ft 483 kts 40°
2026-05-07 18:31 -17.82501 -41.90573 37096 ft 483 kts 40°
2026-05-07 18:32 -17.77137 -41.86346 37098 ft 482 kts 40°
2026-05-07 18:32 -17.71775 -41.82122 37097 ft 482 kts 40°
2026-05-07 18:33 -17.66404 -41.77896 37092 ft 483 kts 40°
2026-05-07 18:33 -17.61034 -41.73673 37085 ft 482 kts 40°
2026-05-07 18:34 -17.55643 -41.69439 37080 ft 483 kts 40°
2026-05-07 18:34 -17.50223 -41.65184 37073 ft 482 kts 40°
2026-05-07 18:35 -17.44842 -41.60962 37073 ft 481 kts 40°
2026-05-07 18:35 -17.39480 -41.56760 37076 ft 482 kts 40°
2026-05-07 18:36 -17.34105 -41.52548 37073 ft 481 kts 40°
2026-05-07 18:36 -17.28781 -41.48381 37078 ft 480 kts 40°
2026-05-07 18:37 -17.23391 -41.44163 37084 ft 482 kts 40°
2026-05-07 18:37 -17.18031 -41.39973 37084 ft 481 kts 40°
2026-05-07 18:38 -17.12663 -41.35781 37088 ft 481 kts 40°
2026-05-07 18:38 -17.07249 -41.31555 37089 ft 481 kts 40°
2026-05-07 18:39 -17.01871 -41.27358 37089 ft 481 kts 40°
2026-05-07 18:39 -16.96529 -41.23193 37090 ft 479 kts 40°
2026-05-07 18:40 -16.91144 -41.18997 37082 ft 482 kts 40°
2026-05-07 18:40 -16.85719 -41.14774 37080 ft 479 kts 40°
2026-05-07 18:41 -16.80332 -41.10585 37076 ft 481 kts 40°
2026-05-07 18:41 -16.74975 -41.06422 37074 ft 480 kts 39°
2026-05-07 18:42 -16.69576 -41.02228 37080 ft 482 kts 39°
2026-05-07 18:42 -16.64192 -40.98049 37082 ft 481 kts 40°
2026-05-07 18:43 -16.58806 -40.93872 37087 ft 481 kts 39°
2026-05-07 18:43 -16.53451 -40.89721 37090 ft 480 kts 39°
2026-05-07 18:44 -16.48071 -40.85555 37085 ft 480 kts 39°
2026-05-07 18:44 -16.42726 -40.81419 37075 ft 480 kts 39°
2026-05-07 18:45 -16.37362 -40.77269 37068 ft 480 kts 39°
2026-05-07 18:45 -16.31953 -40.73088 37056 ft 480 kts 39°
2026-05-07 18:46 -16.26628 -40.68978 37050 ft 479 kts 39°
2026-05-07 18:46 -16.21259 -40.64835 37043 ft 478 kts 39°
2026-05-07 18:47 -16.15899 -40.60702 37052 ft 478 kts 39°
2026-05-07 18:47 -16.10536 -40.56569 37054 ft 477 kts 39°
2026-05-07 18:48 -16.05203 -40.52461 37053 ft 476 kts 39°
2026-05-07 18:48 -15.99887 -40.48369 37055 ft 477 kts 39°
2026-05-07 18:49 -15.94525 -40.44246 37055 ft 477 kts 39°
2026-05-07 18:49 -15.89172 -40.40135 37058 ft 477 kts 39°
2026-05-07 18:50 -15.83800 -40.36017 37064 ft 477 kts 39°
2026-05-07 18:50 -15.78480 -40.31939 37049 ft 476 kts 38°
2026-05-07 18:51 -15.73092 -40.27809 37050 ft 484 kts 38°
2026-05-07 18:51 -15.67580 -40.23587 37041 ft 493 kts 38°
2026-05-07 18:52 -15.62010 -40.19326 37042 ft 500 kts 38°
2026-05-07 18:52 -15.56442 -40.15072 37038 ft 498 kts 38°
2026-05-07 18:53 -15.50836 -40.10800 37033 ft 498 kts 38°
2026-05-07 18:53 -15.45224 -40.06528 37023 ft 499 kts 38°
2026-05-07 18:54 -15.39610 -40.02257 37018 ft 497 kts 38°
2026-05-07 18:54 -15.34052 -39.98029 37008 ft 498 kts 38°
2026-05-07 18:55 -15.28448 -39.93767 37025 ft 497 kts 37°
2026-05-07 18:55 -15.22849 -39.89514 37018 ft 498 kts 37°
2026-05-07 18:56 -15.17275 -39.85282 37024 ft 497 kts 37°
2026-05-07 18:56 -15.11692 -39.81049 37024 ft 496 kts 37°
2026-05-07 18:57 -15.06124 -39.76828 37023 ft 495 kts 37°
2026-05-07 18:57 -15.00555 -39.72608 37027 ft 496 kts 37°
2026-05-07 18:58 -14.94995 -39.68402 37024 ft 496 kts 37°
2026-05-07 18:58 -14.89404 -39.64190 37016 ft 494 kts 37°
2026-05-07 18:59 -14.83830 -39.59996 37010 ft 495 kts 37°
2026-05-07 18:59 -14.78244 -39.55796 37008 ft 495 kts 37°
2026-05-07 19:00 -14.72626 -39.51573 37004 ft 495 kts 37°
2026-05-07 19:00 -14.67092 -39.47416 36997 ft 493 kts 36°
2026-05-07 19:01 -14.61505 -39.43222 36999 ft 494 kts 36°
2026-05-07 19:01 -14.55949 -39.39053 37003 ft 495 kts 36°
2026-05-07 19:02 -14.50355 -39.34860 36998 ft 494 kts 36°
2026-05-07 19:02 -14.44790 -39.30690 37003 ft 495 kts 36°
2026-05-07 19:03 -14.39197 -39.26501 36993 ft 495 kts 36°
2026-05-07 19:03 -14.33643 -39.22344 36988 ft 495 kts 36°
2026-05-07 19:04 -14.28055 -39.18165 36994 ft 495 kts 36°
2026-05-07 19:04 -14.22471 -39.13992 36989 ft 495 kts 36°
2026-05-07 19:05 -14.16918 -39.09843 36994 ft 494 kts 36°
2026-05-07 19:05 -14.11304 -39.05651 36987 ft 494 kts 36°
2026-05-07 19:06 -14.05759 -39.01513 36990 ft 495 kts 36°
2026-05-07 19:06 -13.97376 -38.95264 36987 ft 496 kts 35°
2026-05-07 19:07 -13.91783 -38.91097 36984 ft 494 kts 35°
2026-05-07 19:07 -13.86164 -38.86913 36982 ft 493 kts 35°
2026-05-07 19:08 -13.80580 -38.82758 36972 ft 494 kts 35°
2026-05-07 19:08 -13.75001 -38.78611 36976 ft 494 kts 35°
2026-05-07 19:09 -13.69454 -38.74488 36980 ft 493 kts 34°
2026-05-07 19:09 -13.63906 -38.70367 36972 ft 492 kts 34°
2026-05-07 19:10 -13.58362 -38.66252 36977 ft 492 kts 34°
2026-05-07 19:10 -13.52786 -38.62116 36973 ft 491 kts 34°
2026-05-07 19:11 -13.47259 -38.58019 36975 ft 493 kts 34°
2026-05-07 19:11 -13.41685 -38.53889 36965 ft 490 kts 34°
2026-05-07 19:12 -13.36181 -38.49812 36964 ft 490 kts 34°
2026-05-07 19:12 -13.30636 -38.45709 36967 ft 490 kts 34°
2026-05-07 19:13 -13.25108 -38.41619 36963 ft 490 kts 34°
2026-05-07 19:13 -13.19561 -38.37520 36966 ft 490 kts 33°
2026-05-07 19:14 -13.14038 -38.33440 36966 ft 488 kts 33°
2026-05-07 19:14 -13.08527 -38.29374 36970 ft 491 kts 33°
2026-05-07 19:15 -13.02970 -38.25274 36964 ft 487 kts 33°
2026-05-07 19:15 -12.97452 -38.21206 36970 ft 488 kts 33°
2026-05-07 19:16 -12.91953 -38.17152 36968 ft 487 kts 33°
2026-05-07 19:16 -12.86425 -38.13081 36967 ft 487 kts 32°
2026-05-07 19:17 -12.80932 -38.09036 36963 ft 486 kts 32°
2026-05-07 19:17 -12.75411 -38.04974 36961 ft 487 kts 33°
2026-05-07 19:18 -12.69907 -38.00925 36962 ft 487 kts 32°
2026-05-07 19:18 -12.64422 -37.96893 36960 ft 487 kts 32°
2026-05-07 19:19 -12.58909 -37.92842 36964 ft 487 kts 32°
2026-05-07 19:19 -12.53410 -37.88804 36966 ft 485 kts 32°
2026-05-07 19:20 -12.47887 -37.84753 36966 ft 487 kts 32°
2026-05-07 19:20 -12.42391 -37.80722 36963 ft 486 kts 32°
2026-05-07 19:21 -12.36914 -37.76707 36962 ft 485 kts 32°
2026-05-07 19:21 -12.31396 -37.72665 36962 ft 485 kts 32°
2026-05-07 19:22 -12.25912 -37.68649 36963 ft 486 kts 32°
2026-05-07 19:22 -12.20402 -37.64616 36960 ft 486 kts 32°
2026-05-07 19:23 -12.14908 -37.60596 36963 ft 486 kts 32°
2026-05-07 19:23 -12.09415 -37.56582 36966 ft 487 kts 31°
2026-05-07 19:24 -12.03899 -37.52552 36960 ft 485 kts 32°
2026-05-07 19:24 -11.98419 -37.48549 36959 ft 483 kts 31°
2026-05-07 19:25 -11.92938 -37.44551 36954 ft 484 kts 31°
2026-05-07 19:25 -11.87265 -37.40862 36951 ft 480 kts 26°
2026-05-07 19:26 -11.81479 -37.37501 36951 ft 479 kts 25°
2026-05-07 19:26 -11.75641 -37.34167 36946 ft 479 kts 25°
2026-05-07 19:27 -11.69840 -37.30813 36947 ft 479 kts 25°
2026-05-07 19:27 -11.64038 -37.27421 36943 ft 477 kts 25°
2026-05-07 19:28 -11.58288 -37.24043 36945 ft 477 kts 25°
2026-05-07 19:28 -11.52508 -37.20643 36948 ft 477 kts 25°
2026-05-07 19:29 -11.46776 -37.17269 36948 ft 476 kts 25°
2026-05-07 19:29 -11.41027 -37.13887 36947 ft 477 kts 25°
2026-05-07 19:30 -11.35261 -37.10496 36947 ft 476 kts 25°
2026-05-07 19:30 -11.29527 -37.07127 36946 ft 475 kts 25°
2026-05-07 19:31 -11.23787 -37.03755 36948 ft 474 kts 25°
2026-05-07 19:31 -11.18077 -37.00402 36949 ft 473 kts 25°
2026-05-07 19:32 -11.12353 -36.97044 36949 ft 473 kts 25°
2026-05-07 19:32 -11.06648 -36.93698 36949 ft 472 kts 24°
2026-05-07 19:33 -11.00948 -36.90356 36951 ft 474 kts 24°
2026-05-07 19:33 -10.95218 -36.86999 36950 ft 473 kts 25°
2026-05-07 19:34 -10.89506 -36.83654 36946 ft 471 kts 25°
2026-05-07 19:34 -10.83804 -36.80313 36947 ft 471 kts 25°
2026-05-07 19:35 -10.78107 -36.76977 36942 ft 469 kts 25°
2026-05-07 19:35 -10.72461 -36.73675 36943 ft 469 kts 25°
2026-05-07 19:36 -10.66785 -36.70356 36944 ft 469 kts 25°
2026-05-07 19:36 -10.61093 -36.67032 36946 ft 469 kts 25°
2026-05-07 19:37 -10.55447 -36.63732 36942 ft 463 kts 25°
2026-05-07 19:37 -10.49864 -36.60467 36947 ft 464 kts 25°
2026-05-07 19:38 -10.44209 -36.57170 36944 ft 465 kts 25°
2026-05-07 19:38 -10.38611 -36.53901 36943 ft 461 kts 25°
2026-05-07 19:39 -10.33004 -36.50632 36943 ft 463 kts 25°
2026-05-07 19:39 -10.27442 -36.47390 36945 ft 461 kts 25°
2026-05-07 19:40 -10.21851 -36.44132 36947 ft 461 kts 25°
2026-05-07 19:40 -10.16296 -36.40897 36947 ft 462 kts 25°
2026-05-07 19:41 -10.10717 -36.37648 36951 ft 460 kts 25°
2026-05-07 19:41 -10.05137 -36.34400 36953 ft 458 kts 25°
2026-05-07 19:42 -9.99606 -36.31182 36956 ft 459 kts 25°
2026-05-07 19:42 -9.94048 -36.27949 36956 ft 458 kts 25°
2026-05-07 19:43 -9.88509 -36.24730 36958 ft 458 kts 25°
2026-05-07 19:43 -9.82949 -36.21499 36960 ft 457 kts 25°
2026-05-07 19:44 -9.77426 -36.18291 36956 ft 456 kts 25°
2026-05-07 19:44 -9.71930 -36.15098 36957 ft 455 kts 25°
2026-05-07 19:45 -9.66414 -36.11896 36955 ft 450 kts 25°
2026-05-07 19:45 -9.63740 -36.10337 36955 ft 434 kts 25°
2026-05-07 19:45 -9.61177 -36.08840 36927 ft 423 kts 24°
2026-05-07 19:46 -9.58639 -36.07361 36603 ft 415 kts 24°
2026-05-07 19:46 -9.56145 -36.05913 36606 ft 414 kts 24°
2026-05-07 19:46 -9.51088 -36.02992 36198 ft 418 kts 24°
2026-05-07 19:47 -9.48563 -36.01532 35715 ft 418 kts 24°
2026-05-07 19:47 -9.46029 -36.00067 35265 ft 420 kts 24°
2026-05-07 19:47 -9.43450 -35.98577 34818 ft 424 kts 24°
2026-05-07 19:47 -9.40888 -35.97094 34338 ft 421 kts 24°
2026-05-07 19:48 -9.38379 -35.95638 33875 ft 416 kts 24°
2026-05-07 19:48 -9.35870 -35.94181 33408 ft 410 kts 24°
2026-05-07 19:48 -9.33403 -35.92747 32959 ft 405 kts 24°
2026-05-07 19:48 -9.30969 -35.91334 32516 ft 400 kts 24°
2026-05-07 19:49 -9.28571 -35.89944 32089 ft 398 kts 24°
2026-05-07 19:49 -9.26133 -35.88537 31642 ft 404 kts 24°
2026-05-07 19:49 -9.23658 -35.87112 31173 ft 407 kts 24°
2026-05-07 19:49 -9.21215 -35.85701 30705 ft 403 kts 24°
2026-05-07 19:50 -9.18789 -35.84297 30242 ft 400 kts 24°
2026-05-07 19:50 -9.16366 -35.82892 29786 ft 395 kts 24°
2026-05-07 19:50 -9.13997 -35.81519 29328 ft 392 kts 24°
2026-05-07 19:50 -9.11640 -35.80154 28879 ft 388 kts 24°
2026-05-07 19:51 -9.09297 -35.78798 28430 ft 385 kts 24°
2026-05-07 19:51 -9.06965 -35.77449 27996 ft 382 kts 24°
2026-05-07 19:51 -9.04685 -35.76128 27551 ft 381 kts 25°
2026-05-07 19:51 -9.02440 -35.74698 27098 ft 381 kts 30°
2026-05-07 19:52 -9.00333 -35.73065 26651 ft 382 kts 35°
2026-05-07 19:52 -8.98339 -35.71293 26198 ft 381 kts 38°
2026-05-07 19:52 -8.96401 -35.69457 25743 ft 379 kts 38°
2026-05-07 19:52 -8.94496 -35.67609 25291 ft 376 kts 39°
2026-05-07 19:53 -8.92625 -35.65787 24850 ft 373 kts 39°
2026-05-07 19:53 -8.90752 -35.63968 24395 ft 371 kts 39°
2026-05-07 19:53 -8.88886 -35.62165 23942 ft 368 kts 38°
2026-05-07 19:53 -8.87016 -35.60366 23492 ft 365 kts 38°
2026-05-07 19:54 -8.85189 -35.58614 23059 ft 362 kts 38°
2026-05-07 19:54 -8.83342 -35.56847 22609 ft 359 kts 38°
2026-05-07 19:54 -8.81509 -35.55098 22159 ft 356 kts 38°
2026-05-07 19:54 -8.79719 -35.53391 21721 ft 354 kts 38°
2026-05-07 19:55 -8.77861 -35.51759 21388 ft 343 kts 31°
2026-05-07 19:55 -8.75855 -35.50509 21107 ft 332 kts 24°
2026-05-07 19:55 -8.73778 -35.49452 20614 ft 332 kts 22°
2026-05-07 19:55 -8.71691 -35.48435 20139 ft 332 kts 22°
2026-05-07 19:56 -8.69636 -35.47400 19675 ft 332 kts 24°
2026-05-07 19:56 -8.67557 -35.46305 19218 ft 331 kts 25°
2026-05-07 19:56 -8.65535 -35.45205 18764 ft 331 kts 26°
2026-05-07 19:56 -8.63508 -35.44082 18309 ft 330 kts 27°
2026-05-07 19:57 -8.61488 -35.42949 17849 ft 330 kts 27°
2026-05-07 19:57 -8.59491 -35.41824 17386 ft 330 kts 28°
2026-05-07 19:57 -8.57479 -35.40689 16982 ft 328 kts 28°
2026-05-07 19:57 -8.55482 -35.39562 16599 ft 326 kts 28°
2026-05-07 19:58 -8.53515 -35.38452 16223 ft 323 kts 28°
2026-05-07 19:58 -8.51535 -35.37336 15817 ft 321 kts 29°
2026-05-07 19:58 -8.49600 -35.36245 15421 ft 319 kts 29°
2026-05-07 19:58 -8.47641 -35.35142 15027 ft 317 kts 29°
2026-05-07 19:59 -8.45724 -35.34063 14645 ft 315 kts 30°
2026-05-07 19:59 -8.43800 -35.32979 14271 ft 312 kts 30°
2026-05-07 19:59 -8.41901 -35.31910 13869 ft 311 kts 30°
2026-05-07 19:59 -8.40011 -35.30846 13471 ft 309 kts 30°
2026-05-07 20:00 -8.38128 -35.29785 13107 ft 307 kts 30°
2026-05-07 20:00 -8.36261 -35.28734 12716 ft 305 kts 30°
2026-05-07 20:00 -8.34421 -35.27698 12366 ft 302 kts 31°
2026-05-07 20:00 -8.32570 -35.26657 12001 ft 300 kts 31°
2026-05-07 20:01 -8.30766 -35.25641 11640 ft 298 kts 31°
2026-05-07 20:01 -8.28959 -35.24623 11259 ft 296 kts 32°
2026-05-07 20:01 -8.27159 -35.23610 10946 ft 291 kts 32°
2026-05-07 20:01 -8.25406 -35.22624 10645 ft 287 kts 32°
2026-05-07 20:02 -8.23648 -35.21636 10288 ft 286 kts 32°
2026-05-07 20:02 -8.21914 -35.20660 9926 ft 284 kts 32°
2026-05-07 20:02 -8.20190 -35.19690 9583 ft 282 kts 33°
2026-05-07 20:02 -8.18474 -35.18724 9089 ft 281 kts 33°
2026-05-07 20:03 -8.16752 -35.17756 8562 ft 277 kts 32°
2026-05-07 20:03 -8.15068 -35.16810 8008 ft 275 kts 32°
2026-05-07 20:03 -8.13406 -35.15877 7472 ft 273 kts 32°
2026-05-07 20:03 -8.11744 -35.14945 7133 ft 271 kts 32°
2026-05-07 20:04 -8.10099 -35.14021 6779 ft 269 kts 33°
2026-05-07 20:04 -8.08454 -35.13096 6414 ft 268 kts 33°
2026-05-07 20:04 -8.06829 -35.12184 6084 ft 266 kts 33°
2026-05-07 20:04 -8.05209 -35.11275 5729 ft 266 kts 33°
2026-05-07 20:05 -8.03581 -35.10366 5447 ft 262 kts 32°
2026-05-07 20:05 -8.02015 -35.09493 5346 ft 250 kts 33°
2026-05-07 20:05 -8.00528 -35.08662 5215 ft 239 kts 33°
2026-05-07 20:05 -7.99129 -35.07780 4897 ft 235 kts 42°
2026-05-07 20:06 -7.98108 -35.06527 4560 ft 226 kts 68°
2026-05-07 20:06 -7.97633 -35.05044 4261 ft 217 kts 78°
2026-05-07 20:06 -7.97260 -35.03608 4042 ft 209 kts 77°
2026-05-07 20:06 -7.96842 -35.02220 3811 ft 203 kts 75°
2026-05-07 20:07 -7.96384 -35.00897 3577 ft 199 kts 73°
2026-05-07 20:07 -7.96022 -34.99561 3259 ft 194 kts 92°
2026-05-07 20:07 -7.96405 -34.98307 3005 ft 185 kts 120°
2026-05-07 20:07 -7.97288 -34.97440 2873 ft 175 kts 150°
2026-05-07 20:08 -7.98417 -34.97013 2665 ft 170 kts 158°
2026-05-07 20:08 -7.99518 -34.96629 2416 ft 166 kts 156°
2026-05-07 20:08 -8.00599 -34.96260 2200 ft 158 kts 158°
2026-05-07 20:08 -8.01651 -34.95919 1994 ft 158 kts 158°
2026-05-07 20:09 -8.02689 -34.95576 1790 ft 151 kts 158°
2026-05-07 20:09 -8.03650 -34.95264 1595 ft 143 kts 158°
2026-05-07 20:09 -8.04586 -34.94955 1413 ft 142 kts 158°
2026-05-07 20:10 -8.06497 -34.94329 1032 ft 143 kts 159°
2026-05-07 20:10 -8.07454 -34.94014 851 ft 145 kts 159°
2026-05-07 20:10 -8.08414 -34.93704 670 ft 144 kts 160°
2026-05-07 20:10 -8.09374 -34.93393 488 ft 146 kts 160°
2026-05-07 20:11 -8.10348 -34.93074 294 ft 144 kts 160°
2026-05-07 20:11 -8.11295 -34.92755 102 ft 144 kts 161°
2026-05-07 20:11 -8.12229 -34.92451 43 ft 128 kts 161°
2026-05-07 20:11 -8.12859 -34.92245 42 ft 62 kts 162°
2026-05-07 20:12 -8.13085 -34.92171 42 ft 16 kts 161°
2026-05-07 20:12 -8.13186 -34.92126 42 ft 15 kts 142°
2026-05-07 20:12 -8.13237 -34.92076 42 ft 7 kts 133°
2026-05-07 20:12 -8.13274 -34.92036 42 ft 7 kts 132°
2026-05-07 20:13 -8.13289 -34.91991 42 ft 6 kts 71°
2026-05-07 20:13 -8.13257 -34.91965 42 ft 5 kts 47°
2026-05-07 20:13 -8.13241 -34.91931 42 ft 5 kts 72°
2026-05-07 20:13 -8.13234 -34.91909 42 ft 0 kts 72°
2026-05-07 20:14 -8.13231 -34.91901 42 ft 2 kts 72°
2026-05-07 20:14 -8.13228 -34.91891 42 ft 0 kts 72°